{"data":{"norad_id":53560,"intl_designator":"2022-101AK","name":"STARLINK-4564","alt_names":[],"object_type":"PAYLOAD","status":"ACTIVE","operator":null,"country":"US","launch_date":"2022-08-19","launch_site_code":"AFETR","launch_vehicle":null,"mission":null,"orbit_class":"UNKNOWN","rcs_meters":null,"size_class":null,"mass_kg":null,"dimensions":null,"purposes":["comms"],"wikipedia_slug":null,"has_3d_model":false,"image_url":null,"decayed_at":null,"tle_current":{"epoch":"2026-05-25T04:53:49.896672Z","epoch_age_seconds":54526,"freshness":"FRESH","line1":"1 53560U 22101AK  26145.20404973 -.00000245  00000+0  26899-5 0  9992","line2":"2 53560  53.2135  70.8168 0001322  83.9794 276.1349 15.08837449207996","mean_motion":15.08837449,"eccentricity":0.0001322,"inclination_deg":53.2135,"raan_deg":70.8168,"arg_perigee_deg":83.9794,"mean_anomaly_deg":276.1349,"bstar":2.6899e-6,"rev_number":20799,"period_min":95.437716034579,"perigee_km":538.83664154331,"apogee_km":540.66573117978,"semimajor_km":6917.8881863615,"source":"CELESTRAK","updated_at":"2026-05-25T13:38:17.446408Z"}}}